[[{"header":{"parameterUnit":"m.s-1","parameterCategory":1,"la1":30.2991,"la2":30.254,"lo1":-89.0895,"lo2":-89.0444,"dy":0.0017,"dx":0.0017,"nx":28,"ny":28,"refTime":"2024-04-06T03:00:00:Z","depth":0,"parameterNumber":2,"parameterNumberName":"U-component_of_WINDS"},"data":[0,0,0,0,0,0,0,0,0,0,0,0,0,0,0,0,0,0,0,0,0,0,0,0,0,0,0,0,0,0,0,0,0,0,0,0,0,0,0,0,0,0,0,0,0,0,0,0,0,0,0,0,0,0,0,0,0,0,-3.1757,-3.1757,0,-3.1708,-3.1707,-3.1707,-3.1613,-3.1611,-3.1609,-3.1607,-3.1558,-3.1558,-3.1558,0,0,0,0,0,0,0,0,0,0,0,0,0,-3.1773,-3.1773,-3.1757,-3.1756,-3.1756,-3.1708,-3.1707,-3.1706,-3.1613,-3.1611,-3.1609,-3.1607,-3.1558,-3.1558,-3.1559,0,0,0,0,0,0,0,0,0,0,0,0,0,-3.1749,-3.1773,-3.1757,-3.1703,-3.1698,-3.1708,-3.1707,-3.1706,-3.1614,-3.1611,-3.1608,-3.1605,-3.1557,-3.1558,-3.1559,-3.1617,0,0,-3.156,-3.1561,0,0,0,0,0,0,0,0,-3.175,-3.1748,-3.1712,-3.1707,-3.1701,-3.1663,-3.1694,-3.1676,-3.1614,-3.1646,-3.1607,-3.1604,-3.1595,-3.1593,-3.1589,-3.1615,-3.1613,-3.156,-3.1561,-3.1561,-3.1561,0,0,0,0,0,0,0,-3.1752,-3.175,-3.1737,-3.1712,-3.1705,-3.1682,-3.1676,-3.169,-3.1636,-3.1643,-3.1636,-3.1631,-3.1592,-3.1589,-3.1587,-3.1612,-3.156,-3.1561,-3.1561,-3.1561,-3.1683,-3.1685,0,0,0,0,0,0,-3.1761,-3.1752,-3.1739,-3.1736,-3.1719,-3.1684,-3.1677,-3.1678,-3.1636,-3.1627,-3.1634,-3.1627,-3.1589,-3.1587,-3.1585,-3.165,-3.1561,-3.1562,-3.1562,-3.168,-3.1683,-3.1686,0,0,0,0,0,0,-3.1762,-3.1761,-3.1741,-3.1742,-3.1738,-3.1687,-3.1689,-3.1679,-3.1676,-3.1629,-3.1619,-3.164,-3.1587,-3.1585,-3.161,-3.1647,-3.1562,-3.1562,-3.1676,-3.1681,-3.1685,-3.178,0,0,0,0,0,0,-3.1763,-3.1762,-3.1783,-3.1743,-3.1738,-3.1766,-3.1691,-3.168,-3.1677,-3.1668,-3.1633,-3.1624,-3.1585,-3.1609,-3.161,-3.1646,-3.1563,-3.1673,-3.1678,-3.1683,-3.1774,-3.1788,-3.1799,0,0,0,0,0,-3.1764,-3.1812,-3.1784,-3.1783,-3.1763,-3.1768,-3.1765,-3.1718,-3.168,-3.1701,-3.1672,-3.1626,-3.1644,-3.1613,-3.1613,-3.165,-3.167,-3.1677,-3.1683,-3.1768,-3.1785,-3.1799,0,0,0,0,0,0,-3.1857,-3.1806,-3.1775,-3.1811,-3.1795,-3.1752,-3.1777,-3.1738,-3.1732,-3.1723,-3.1666,-3.1659,-3.1692,-3.1673,-3.164,-3.1704,-3.1649,-3.1656,-3.1714,-3.173,-3.1742,-3.1745,-3.1563,0,0,0,0,0,-3.1883,-3.189,-3.1845,-3.1882,-3.1875,-3.1828,-3.1829,-3.1794,-3.1775,-3.1767,-3.1739,-3.1722,-3.1724,-3.1726,-3.1725,-3.1772,-3.1762,-3.1797,-3.181,-3.1821,-3.1827,-3.1849,-3.1864,-3.1708,-3.1707,-3.1707,0,0,-3.1934,-3.1907,-3.1915,-3.19,-3.1883,-3.1893,-3.1823,-3.1836,-3.1843,-3.1769,-3.179,-3.177,-3.1748,-3.1784,-3.1798,-3.1769,-3.1868,-3.1829,-3.1838,-3.1838,-3.1858,-3.1872,-3.1886,-3.1712,-3.1711,-3.171,0,0,-3.2032,-3.2013,-3.2041,-3.2026,-3.2001,-3.197,-3.1977,-3.1941,-3.1924,-3.1945,-3.189,-3.1898,-3.1902,-3.1888,-3.1882,-3.1978,-3.1935,-3.1979,-3.2045,-3.2068,-3.208,-3.2091,-3.2124,-3.2136,-3.1986,-3.1986,-3.1986,0,-3.2099,-3.2111,-3.2061,-3.2078,-3.2073,-3.2007,-3.2036,-3.2024,-3.2001,-3.1999,-3.1967,-3.1972,-3.1952,-3.1983,-3.2007,-3.2005,-3.2011,-3.1981,-3.2083,-3.2093,-3.2102,-3.2132,-3.2145,-3.1991,-3.1991,-3.199,-3.199,0,-3.2194,-3.2204,-3.223,-3.2208,-3.2207,-3.2229,-3.2183,-3.2188,-3.2155,-3.2127,-3.2149,-3.2124,-3.2116,-3.2122,-3.2089,-3.2149,-3.2132,-3.2093,-3.2036,-3.2123,-3.2151,-3.2162,-3.1999,-3.1997,-3.1996,-3.1994,0,0,-3.2348,-3.23,-3.231,-3.2299,-3.2268,-3.2275,-3.2295,-3.2288,-3.2292,-3.228,-3.2295,-3.2301,-3.2264,-3.2257,-3.2223,-3.2244,-3.232,-3.2201,-3.22,-3.2223,-3.2383,-3.2411,-3.2426,-3.2292,-3.2294,-3.2296,-3.2384,0,-3.2438,-3.2468,-3.2425,-3.2465,-3.2473,-3.2412,-3.243,-3.2414,-3.2389,-3.2392,-3.2365,-3.237,-3.2322,-3.2317,-3.2335,-3.2307,-3.2351,-3.23,-3.2305,-3.2306,-3.231,-3.244,-3.247,-3.2554,-3.2395,-3.2397,-3.2398,0,-3.2546,-3.2538,-3.2579,-3.2546,-3.2548,-3.2564,-3.2554,-3.2559,-3.2539,-3.252,-3.2513,-3.2472,-3.249,-3.2438,-3.2462,-3.2428,-3.2428,-3.2415,-3.2417,-3.2414,-3.2356,-3.2439,-3.258,-3.2592,-3.2415,-3.2414,-3.2412,0,-3.2652,-3.2652,-3.2676,-3.2669,-3.2632,-3.2645,-3.263,-3.2607,-3.2606,-3.2598,-3.2596,-3.2591,-3.2588,-3.2585,-3.2544,-3.251,-3.2573,-3.2517,-3.2557,-3.2558,-3.257,-3.257,-3.2712,-3.2575,-3.2574,-3.2574,-3.2574,0,-3.2755,-3.2783,-3.2723,-3.2738,-3.2767,-3.2718,-3.2748,-3.2727,-3.2708,-3.2718,-3.2667,-3.2677,-3.2624,-3.2629,-3.2598,-3.2622,-3.2621,-3.2606,-3.2597,-3.2609,-3.2611,-3.2607,-3.2599,-3.2577,-3.2577,-3.2576,-3.2575,0,-3.2877,-3.2838,-3.2861,-3.2824,-3.2815,-3.2838,-3.2807,-3.2819,-3.2792,-3.2806,-3.2806,-3.2763,-3.2767,-3.2727,-3.2723,-3.2702,-3.274,-3.2721,-3.2746,-3.2739,-3.2781,-3.2777,-3.2923,-3.2939,-3.2794,-3.2795,-3.2797,0,-3.2945,-3.2964,-3.293,-3.2932,-3.292,-3.2926,-3.2924,-3.2877,-3.2878,-3.2857,-3.2873,-3.2872,-3.2869,-3.2877,-3.2846,-3.2843,-3.2823,-3.2875,-3.2822,-3.2834,-3.2822,-3.282,-3.2822,-3.2885,-3.2887,-3.2888,-3.2889,0,-3.3068,-3.3048,-3.3048,-3.3041,-3.3041,-3.3033,-3.3022,-3.3028,-3.2977,-3.298,-3.2983,-3.2981,-3.2977,-3.2977,-3.2968,-3.2953,-3.2913,-3.2907,-3.2915,-3.2927,-3.294,-3.2932,-3.2774,-3.2903,-3.2902,-3.2901,-3.29,-3.2899,-3.3164,-3.3178,-3.3156,-3.3157,-3.3144,-3.3136,-3.3146,-3.312,-3.3121,-3.3114,-3.3087,-3.3095,-3.3075,-3.3059,-3.3048,-3.3054,-3.3028,-3.3041,-3.3044,-3.3048,-3.3055,-3.2941,-3.3052,-3.3052,-3.3051,-3.3051,-3.3051,0,-3.3283,-3.3267,-3.3268,-3.3255,-3.3256,-3.3219,-3.3206,-3.3209,-3.3216,-3.3202,-3.32,-3.3203,-3.3203,-3.3173,-3.3169,-3.318,-3.3161,-3.318,-3.3178,-3.3175,-3.3078,-3.307,-3.3195,-3.3195,-3.3195,-3.3195,-3.3195,-3.3195,-3.3346,-3.3368,-3.3346,-3.3362,-3.3344,-3.3351,-3.3347,-3.3339,-3.3326,-3.3333,-3.3332,-3.3313,-3.3292,-3.3286,-3.3285,-3.3276,-3.3276,-3.3301,-3.3286,-3.3196,-3.3182,-3.3168,-3.316,-3.3302,-3.3302,-3.3382,-3.3383,-3.3383]},{"header":{"parameterUnit":"m.s-1","parameterCategory":1,"la1":30.2991,"la2":30.254,"lo1":-89.0895,"lo2":-89.0444,"dy":0.0017,"dx":0.0017,"nx":28,"ny":28,"refTime":"2024-04-06T03:00:00:Z","depth":0,"parameterNumber":3,"parameterNumberName":"V-component_of_WINDS"},"data":[0,0,0,0,0,0,0,0,0,0,0,0,0,0,0,0,0,0,0,0,0,0,0,0,0,0,0,0,0,0,0,0,0,0,0,0,0,0,0,0,0,0,0,0,0,0,0,0,0,0,0,0,0,0,0,0,0,0,2.6388,2.6388,0,2.644,2.6441,2.6442,2.646,2.646,2.646,2.6459,2.651,2.6511,2.6513,0,0,0,0,0,0,0,0,0,0,0,0,0,2.63,2.6301,2.6388,2.6388,2.6389,2.644,2.6441,2.6442,2.646,2.646,2.646,2.6459,2.6509,2.6511,2.6513,0,0,0,0,0,0,0,0,0,0,0,0,0,2.6344,2.6302,2.6387,2.6404,2.6406,2.644,2.6441,2.6442,2.646,2.646,2.646,2.6459,2.6509,2.6511,2.6513,2.6533,0,0,2.652,2.6521,0,0,0,0,0,0,0,0,2.6341,2.6347,2.6401,2.6403,2.6406,2.6443,2.6429,2.6472,2.646,2.644,2.6459,2.6459,2.6488,2.6492,2.6502,2.6535,2.6537,2.652,2.6522,2.6523,2.6523,0,0,0,0,0,0,0,2.6338,2.6345,2.6408,2.6402,2.6405,2.6408,2.6414,2.6437,2.6464,2.6441,2.6443,2.6449,2.6489,2.65,2.6503,2.6538,2.652,2.6522,2.6524,2.6525,2.6591,2.6591,0,0,0,0,0,0,2.6333,2.6342,2.6407,2.641,2.6372,2.641,2.6417,2.6431,2.6464,2.6469,2.6449,2.645,2.6496,2.6501,2.6505,2.6531,2.6523,2.6525,2.6526,2.659,2.6591,2.6591,0,0,0,0,0,0,2.6331,2.6338,2.6405,2.6377,2.6385,2.6412,2.6428,2.6433,2.6444,2.647,2.6475,2.6456,2.6496,2.6502,2.6526,2.6533,2.6526,2.6528,2.659,2.6591,2.6591,2.6582,0,0,0,0,0,0,2.6328,2.6338,2.6346,2.6377,2.6387,2.6426,2.6429,2.6434,2.6448,2.6449,2.6478,2.6482,2.6496,2.6523,2.6529,2.6536,2.653,2.6589,2.659,2.6591,2.6582,2.6583,2.6583,0,0,0,0,0,2.6325,2.634,2.6346,2.6354,2.6398,2.6426,2.6432,2.6449,2.6449,2.6457,2.6474,2.6481,2.6531,2.6525,2.6532,2.654,2.6589,2.659,2.6591,2.6582,2.6582,2.6583,0,0,0,0,0,0,2.6308,2.6345,2.6351,2.6377,2.6399,2.6429,2.644,2.6449,2.6469,2.6469,2.6489,2.6495,2.6518,2.6531,2.6524,2.6561,2.6561,2.6563,2.6552,2.6552,2.6553,2.6549,2.6532,0,0,0,0,0,2.6308,2.6328,2.6359,2.6379,2.6389,2.6413,2.6425,2.6437,2.6459,2.6468,2.6487,2.6507,2.6528,2.6541,2.6561,2.6584,2.6591,2.6593,2.6594,2.6594,2.6595,2.6609,2.6611,2.6594,2.6594,2.6594,0,0,2.6306,2.6329,2.634,2.6376,2.6394,2.6414,2.642,2.6441,2.6456,2.6471,2.6495,2.651,2.6534,2.6558,2.657,2.657,2.6601,2.6595,2.6595,2.6596,2.661,2.6612,2.6613,2.6595,2.6595,2.6595,0,0,2.6314,2.6334,2.6353,2.6371,2.6398,2.6414,2.6419,2.6448,2.6459,2.6484,2.6496,2.6514,2.6549,2.6566,2.6579,2.6595,2.6602,2.6601,2.6602,2.6616,2.6617,2.6618,2.6624,2.6626,2.6602,2.6602,2.6602,0,2.6309,2.6341,2.6361,2.6382,2.6397,2.6413,2.6432,2.6449,2.6481,2.649,2.6491,2.6536,2.6553,2.6581,2.6586,2.6595,2.6601,2.6597,2.6615,2.6617,2.6618,2.6624,2.6626,2.6602,2.6602,2.6602,2.6602,0,2.6333,2.6355,2.6367,2.64,2.6416,2.6436,2.6458,2.6473,2.6483,2.6499,2.6524,2.6546,2.6571,2.6579,2.6588,2.6609,2.6608,2.6612,2.6611,2.6619,2.6625,2.6627,2.6601,2.6601,2.6602,2.6602,0,0,2.6331,2.6376,2.638,2.6395,2.6427,2.6444,2.6465,2.6491,2.6503,2.6524,2.6542,2.6572,2.6576,2.6591,2.6602,2.6614,2.6626,2.6616,2.6617,2.6617,2.665,2.6647,2.6649,2.6631,2.6631,2.6632,2.6648,0,2.6344,2.6383,2.6402,2.6432,2.6453,2.6469,2.6487,2.6508,2.6523,2.6542,2.6558,2.658,2.6583,2.6592,2.6604,2.6622,2.6632,2.6621,2.6647,2.6647,2.664,2.6652,2.6649,2.6663,2.665,2.6651,2.6651,0,2.6364,2.6387,2.642,2.645,2.646,2.6476,2.6502,2.652,2.6544,2.6555,2.6572,2.6584,2.6605,2.6604,2.6634,2.6626,2.6637,2.6648,2.6649,2.6651,2.6649,2.6655,2.6668,2.667,2.6654,2.6654,2.6654,0,2.6359,2.6399,2.6424,2.6436,2.6473,2.6484,2.6499,2.6523,2.6538,2.656,2.657,2.6594,2.6607,2.6625,2.6643,2.664,2.6671,2.6671,2.668,2.6679,2.6685,2.6684,2.67,2.6693,2.6693,2.6693,2.6693,0,2.6371,2.6391,2.6423,2.6438,2.646,2.6482,2.6503,2.6519,2.6541,2.6559,2.6573,2.659,2.6613,2.6632,2.6646,2.6669,2.6674,2.6683,2.6686,2.6681,2.668,2.6689,2.6689,2.6693,2.6693,2.6693,2.6693,0,2.637,2.6393,2.6421,2.6453,2.6462,2.6477,2.6504,2.6519,2.6536,2.6559,2.6565,2.6591,2.6614,2.6634,2.6664,2.6674,2.6698,2.6702,2.669,2.6692,2.6699,2.6698,2.6721,2.6725,2.6715,2.6715,2.6715,0,2.6376,2.6392,2.6427,2.6441,2.6456,2.6478,2.6494,2.6516,2.6531,2.6561,2.6572,2.6597,2.6618,2.6655,2.6676,2.6699,2.6704,2.671,2.6707,2.6702,2.6704,2.6703,2.6704,2.671,2.671,2.671,2.671,0,2.6385,2.6396,2.6419,2.6445,2.6464,2.6486,2.6508,2.6518,2.6544,2.656,2.6586,2.6602,2.6634,2.6658,2.6684,2.6699,2.6709,2.6711,2.6714,2.6709,2.6702,2.6706,2.669,2.671,2.671,2.671,2.671,2.671,2.6388,2.6403,2.643,2.6455,2.6474,2.6495,2.6511,2.653,2.6552,2.6581,2.6592,2.6617,2.6642,2.6678,2.6693,2.6713,2.6714,2.6718,2.672,2.672,2.672,2.6699,2.6717,2.6717,2.6717,2.6717,2.6717,0,2.6398,2.6417,2.6439,2.6471,2.649,2.6499,2.6524,2.654,2.6563,2.6585,2.6606,2.6635,2.6659,2.6682,2.6707,2.6718,2.6723,2.6724,2.6723,2.6727,2.6717,2.6712,2.672,2.672,2.672,2.672,2.672,2.672,2.6405,2.6431,2.6445,2.6481,2.6499,2.6525,2.6539,2.6558,2.6576,2.6608,2.6629,2.6644,2.6667,2.6694,2.6716,2.6722,2.673,2.673,2.6737,2.6728,2.6727,2.6727,2.6722,2.6732,2.6732,2.6745,2.6745,2.6745]}]]